铱星星座 156星 (IRIDIUM 156)

导读

IRIDIUM 156铱星156号卫星,是美国于2018年7月25日发射的通信卫星,隶属于铱星系统。该系统由近地轨道卫星组网,提供全球语音和数据通信服务。IRIDIUM 156承担着接替老旧卫星、保障全球无缝覆盖通信的任务,为海事、航空等领域客户提供稳定的全球通信连接。

Basic Information
目录编号:
43576
目录名称:
IRIDIUM 156
国际标识:
2018-061H
轨道中心:
EARTH
卫星名称:
铱星星座 156星
卫星全名:
铱星星座 156星 (IRIDIUM 156)
卫星状态:
在轨 (已飞行2974 天)
发射日期:
2018-07-25 UTC
国别 :
美国 (US)
星等 :
--
This satellite is enrolled in the Space Conjunction Data Service (SCDS) and the current flight risk assessment level is: No High Risk
Orbit Information
数据来源 国际轨道数据
星历时间: 2026-09-15T05:49:42+0800
1天前
查看轨道信息
半长轴: 7155.807km
偏心率: 0.0002147
轨道倾角: 86.400°
近地点辐角 90.081°
升交点赤经 19.203°
平近点角 270.063°
近地点: 776.133km
远地点: 779.207km
周期: 100.403分钟
每日圈数: 14.342171
Detailed Information
平衡模式:
三轴稳定
覆盖范围:
全球
运营商:
铱星通信公司
运营商所在国:
美国
制造商(研发单位):
阿莱尼亚宇航公司
制造商所在国:
意大利
使用方式:
暂无
Satellite Introduction
铱星(Iridium)是由共66个运作中的通信卫星组成的卫星通信系统。这个系统原本规划77个通信卫星,所以用原子序数为77的铱元素来命名。铱卫星允许人们使用手持型电子设备进行全球性的语音及数据通讯。该卫星仍在工作。
2D Orbit Map
3D Orbit Map
Orbit Altitude Analysis Chart
Orbit Inclination Analysis Chart
Orbit Comprehensive Analysis Chart
View Comprehensive Chart
Conjunction Data List
Event ID Objects TCA Miss Dist (km) Collision Risk Probability Collision Risk Index (CRI) Action
CDM_260917-011304-357604-460024
2026-09-17T
01:13:00+0000
1.980 km
极远距离
2.932092E-6 低风险 0.44
CDM_260917-235300-495404-357622
2026-09-17T
23:53:04+0000
2.284 km
极远距离
1.749558E-6 低风险 0.4
CDM_260918-050002-043804-357621
2026-09-18T
05:00:08+0000
2.773 km
极远距离
1.00412E-6 低风险 0.35
Miss Distance Evolution Trend with All Objects Subscribe to Flight Safety Assessment
Collision Probability Evolution Trend with All Objects Subscribe to Flight Safety Assessment